Weather in Parintins

Brazil     2°37′51″S   56°44′00″W
temp.,
°C
wind,
m/s
gust,
m/s
humid.,
%
clouds,
%
prec.,
mm/h
press.,
hPa
HPBL,
m
25 february, thu
thu2523:00+24e128360 0.0 101125
02:00+23ne118857 0.6 100823
05:00+22ne1498100 0.7 1009149
08:00+25nne2590100 0.7 1011355
11:00+30ne256761 0.5 10111012
14:00+33ene235457 1.8 10061428
17:00+29e257842 2.4 1005343
20:00+25se129071 2.5 100824
26 february, fri
fri2623:00+24ese1191100 0.4 101024
02:00+23se1197100 1.8 100733
05:00+23nne1295100 3.6 100876
08:00+23nne1697100 4.8 1010327
11:00+25ne1594100 2.6 1011554
14:00+25ene0193100 4.0 1008198
17:00+25ese1194100 0.0 1006174
20:00+23se129884 0.0 100833
27 february, sat
sat2723:00+23se0196100 0.0 101023
02:00+23se119997 0.0 100823
05:00+23ese1197100 0.0 100833
08:00+24e1393100 0.0 1010165
11:00+29ne257397 0.6 1011985
14:00+31nne246082 2.1 10061264
17:00+28ene118799 2.1 100547
20:00+24nne119599 3.1 100724
28 february, sun
sun2823:00+24ene019796 0.5 100924
02:00+24ne119798 0.5 100723
05:00+23ne1298100 0.8 100761
08:00+25ne2792100 1.1 1010431
11:00+26ne2692100 2.3 1009567
14:00+27e149198 6.1 1005260
17:00+26ene119288 3.4 100498
20:00+24ese119592 3.6 100624
1 march, mon
mon123:00+24ene1196100 0.1 100724
02:00+23nne1297100 3.6 100666
05:00+23n1698100 4.8 1006223
08:00+23nnw2799100 7.7 1009321
11:00+24n2791100 0.8 1009581
14:00+24wnw2495100 0.9 1006296
17:00+24w129292 0.0 1004206
20:00+23w119596 0.4 100726